• Em Portugal
  • Lista de países
  • Para 7 dias
  • Temperatura da água
  • Mapas de satélite
  • Mapa do tempo
  • Widgets de tempo
  • user-avatar
    Iniciar Sessão

    Previsão horária em Encamp

    Hoje, 16 Dezembro, Sábado

    Tempo Temperatura Precipitação Vento Pressão Humidade
    00:00 -7°C° 0 mm 3 m/s 616 mmHg 78%
    01:00 -7°C° 0,1 mm 3 m/s 616 mmHg 79%
    02:00 -7°C° 0,1 mm 3 m/s 617 mmHg 80%
    03:00 -7°C° 0,1 mm 3 m/s 617 mmHg 81%
    04:00 -7°C° 0 mm 3 m/s 617 mmHg 81%
    05:00 -7°C° 0 mm 3 m/s 617 mmHg 81%
    06:00 -7°C° 0 mm 2 m/s 618 mmHg 82%
    07:00 -6°C° 0 mm 2 m/s 618 mmHg 78%
    08:00 -7°C° 0 mm 3 m/s 619 mmHg 74%
    09:00 -6°C° 0 mm 3 m/s 620 mmHg 70%
    10:00 -5°C° 0 mm 3 m/s 621 mmHg 64%
    11:00 -4°C° 0 mm 3 m/s 621 mmHg 59%
    12:00 -3°C° 0 mm 4 m/s 622 mmHg 54%
    13:00 -4°C° 0 mm 3 m/s 622 mmHg 55%
    14:00 -4°C° 0 mm 3 m/s 622 mmHg 57%
    15:00 -5°C° 0 mm 3 m/s 622 mmHg 59%
    16:00 -6°C° 0 mm 3 m/s 622 mmHg 63%
    17:00 -7°C° 0 mm 3 m/s 622 mmHg 68%
    18:00 -8°C° 0 mm 3 m/s 622 mmHg 73%
    19:00 -8°C° 0,1 mm 3 m/s 622 mmHg 73%
    20:00 -8°C° 0,1 mm 3 m/s 623 mmHg 74%
    21:00 -9°C° 0,1 mm 3 m/s 623 mmHg 75%
    22:00 -9°C° 0,1 mm 3 m/s 624 mmHg 76%
    23:00 -9°C° 0,1 mm 3 m/s 624 mmHg 76%

    Amanhã, 17 Dezembro, Domingo

    Tempo Temperatura Precipitação Vento Pressão Humidade
    00:00 -9°C° 0,1 mm 3 m/s 624 mmHg 77%
    01:00 -9°C° 0 mm 3 m/s 624 mmHg 77%
    02:00 -9°C° 0 mm 3 m/s 624 mmHg 77%
    03:00 -10°C° 0 mm 3 m/s 624 mmHg 77%
    04:00 -10°C° 0 mm 3 m/s 624 mmHg 75%
    05:00 -10°C° 0 mm 3 m/s 624 mmHg 74%
    06:00 -10°C° 0 mm 3 m/s 625 mmHg 73%
    07:00 -9°C° 0 mm 3 m/s 625 mmHg 70%
    08:00 -8°C° 0 mm 3 m/s 626 mmHg 67%
    09:00 -7°C° 0 mm 3 m/s 627 mmHg 64%
    10:00 -6°C° 0 mm 3 m/s 628 mmHg 61%
    11:00 -4°C° 0 mm 3 m/s 628 mmHg 57%
    12:00 -3°C° 0 mm 4 m/s 629 mmHg 54%
    13:00 -2°C° 0 mm 3 m/s 628 mmHg 57%
    14:00 -2°C° 0 mm 3 m/s 628 mmHg 60%
    15:00 -2°C° 0 mm 3 m/s 628 mmHg 63%
    16:00 -4°C° 0 mm 3 m/s 628 mmHg 68%
    17:00 -5°C° 0 mm 3 m/s 628 mmHg 73%
    18:00 -6°C° 0 mm 3 m/s 628 mmHg 77%
    19:00 -6°C° 0 mm 3 m/s 628 mmHg 78%
    20:00 -6°C° 0 mm 3 m/s 629 mmHg 80%
    21:00 -6°C° 0 mm 3 m/s 629 mmHg 81%
    22:00 -6°C° 0 mm 3 m/s 629 mmHg 81%
    23:00 -6°C° 0 mm 3 m/s 629 mmHg 81%

    Depois de amanhã, 18 Dezembro, Segunda-feira

    Tempo Temperatura Precipitação Vento Pressão Humidade
    00:00 -6°C° 0 mm 3 m/s 629 mmHg 81%
    01:00 -6°C° 0 mm 3 m/s 629 mmHg 81%
    02:00 -7°C° 0 mm 3 m/s 629 mmHg 81%
    03:00 -7°C° 0 mm 3 m/s 629 mmHg 81%
    04:00 -7°C° 0 mm 3 m/s 629 mmHg 81%
    05:00 -7°C° 0 mm 3 m/s 629 mmHg 81%
    06:00 -7°C° 0 mm 3 m/s 629 mmHg 81%
    07:00 -6°C° 0 mm 3 m/s 630 mmHg 78%
    08:00 -5°C° 0 mm 3 m/s 630 mmHg 75%
    09:00 -2°C° 0 mm 3 m/s 631 mmHg 72%
    10:00 -1°C° 0 mm 3 m/s 631 mmHg 70%
    11:00 0°C° 0 mm 3 m/s 631 mmHg 68%
    12:00 +1°C° 0 mm 3 m/s 631 mmHg 67%
    13:00 +1°C° 0,1 mm 3 m/s 631 mmHg 69%
    14:00 0°C° 0,1 mm 3 m/s 630 mmHg 72%
    15:00 0°C° 0,1 mm 3 m/s 629 mmHg 75%
    16:00 0°C° 0,2 mm 3 m/s 629 mmHg 78%
    17:00 -1°C° 0,2 mm 3 m/s 629 mmHg 81%
    18:00 -1°C° 0,2 mm 3 m/s 628 mmHg 83%
    19:00 -1°C° 0,4 mm 3 m/s 628 mmHg 84%
    20:00 -2°C° 0,4 mm 4 m/s 628 mmHg 85%
    21:00 -2°C° 0,4 mm 4 m/s 628 mmHg 86%
    22:00 -2°C° 0,3 mm 4 m/s 628 mmHg 87%
    23:00 -2°C° 0,3 mm 4 m/s 628 mmHg 87%

    19 Dezembro, Terça-feira

    Tempo Temperatura Precipitação Vento Pressão Humidade
    00:00 -2°C° 0,3 mm 4 m/s 628 mmHg 88%
    01:00 -2°C° 0,2 mm 4 m/s 628 mmHg 88%
    02:00 -3°C° 0,2 mm 4 m/s 628 mmHg 89%
    03:00 -3°C° 0,2 mm 4 m/s 628 mmHg 89%
    04:00 -4°C° 0 mm 4 m/s 628 mmHg 89%
    05:00 -4°C° 0 mm 3 m/s 628 mmHg 89%
    06:00 -5°C° 0 mm 3 m/s 628 mmHg 89%
    07:00 -5°C° 0 mm 3 m/s 629 mmHg 86%
    08:00 -3°C° 0 mm 2 m/s 630 mmHg 83%
    09:00 -3°C° 0 mm 2 m/s 630 mmHg 80%
    10:00 -2°C° 0 mm 2 m/s 631 mmHg 74%
    11:00 -1°C° 0 mm 2 m/s 632 mmHg 68%
    12:00 +2°C° 0 mm 2 m/s 632 mmHg 62%
    13:00 +1°C° 0 mm 2 m/s 632 mmHg 64%
    14:00 +1°C° 0 mm 2 m/s 632 mmHg 66%
    15:00 +1°C° 0 mm 2 m/s 632 mmHg 69%
    16:00 -2°C° 0 mm 2 m/s 631 mmHg 74%
    17:00 -4°C° 0 mm 2 m/s 631 mmHg 80%
    18:00 -6°C° 0 mm 2 m/s 630 mmHg 85%
    19:00 -6°C° 0 mm 2 m/s 631 mmHg 82%
    20:00 -6°C° 0 mm 2 m/s 631 mmHg 79%
    21:00 -6°C° 0 mm 2 m/s 631 mmHg 76%
    22:00 -6°C° 0 mm 2 m/s 631 mmHg 73%
    23:00 -7°C° 0 mm 2 m/s 631 mmHg 71%

    20 Dezembro, Quarta-feira

    Tempo Temperatura Precipitação Vento Pressão Humidade
    00:00 -7°C° 0 mm 2 m/s 631 mmHg 68%
    01:00 -7°C° 0 mm 2 m/s 631 mmHg 67%
    02:00 -7°C° 0 mm 2 m/s 631 mmHg 65%
    03:00 -7°C° 0 mm 2 m/s 631 mmHg 63%
    04:00 -7°C° 0 mm 2 m/s 631 mmHg 62%
    05:00 -7°C° 0 mm 2 m/s 631 mmHg 61%
    06:00 -6°C° 0 mm 2 m/s 632 mmHg 60%
    07:00 -5°C° 0 mm 2 m/s 632 mmHg 58%
    08:00 -4°C° 0 mm 2 m/s 633 mmHg 56%
    09:00 -3°C° 0 mm 2 m/s 634 mmHg 54%
    10:00 -1°C° 0 mm 2 m/s 634 mmHg 53%
    11:00 +2°C° 0 mm 2 m/s 635 mmHg 53%
    12:00 +3°C° 0 mm 2 m/s 635 mmHg 53%
    13:00 +3°C° 0 mm 2 m/s 635 mmHg 57%
    14:00 +2°C° 0 mm 2 m/s 634 mmHg 60%
    15:00 +2°C° 0 mm 2 m/s 634 mmHg 64%
    16:00 -1°C° 0 mm 2 m/s 634 mmHg 67%
    17:00 -2°C° 0 mm 2 m/s 633 mmHg 70%
    18:00 -4°C° 0 mm 2 m/s 633 mmHg 72%
    19:00 -4°C° 0 mm 2 m/s 633 mmHg 71%
    20:00 -4°C° 0 mm 2 m/s 633 mmHg 69%
    21:00 -4°C° 0 mm 2 m/s 633 mmHg 68%
    22:00 -4°C° 0 mm 2 m/s 633 mmHg 68%
    23:00 -4°C° 0 mm 2 m/s 633 mmHg 68%

    21 Dezembro, Quinta-feira

    Tempo Temperatura Precipitação Vento Pressão Humidade
    00:00 -4°C° 0 mm 2 m/s 633 mmHg 68%
    01:00 -4°C° 0 mm 2 m/s 633 mmHg 69%
    02:00 -4°C° 0 mm 2 m/s 633 mmHg 69%
    03:00 -4°C° 0 mm 2 m/s 633 mmHg 69%
    04:00 -4°C° 0 mm 2 m/s 633 mmHg 70%
    05:00 -4°C° 0 mm 2 m/s 633 mmHg 70%
    06:00 -4°C° 0 mm 2 m/s 633 mmHg 70%
    07:00 -2°C° 0 mm 2 m/s 634 mmHg 68%
    08:00 -1°C° 0 mm 2 m/s 634 mmHg 67%
    09:00 +2°C° 0 mm 1 m/s 635 mmHg 65%
    10:00 +3°C° 0 mm 1 m/s 635 mmHg 63%
    11:00 +5°C° 0 mm 1 m/s 636 mmHg 61%
    12:00 +6°C° 0 mm 1 m/s 636 mmHg 59%
    13:00 +6°C° 0 mm 1 m/s 636 mmHg 62%
    14:00 +5°C° 0 mm 1 m/s 635 mmHg 65%
    15:00 +5°C° 0 mm 1 m/s 635 mmHg 68%
    16:00 +3°C° 0 mm 1 m/s 634 mmHg 71%
    17:00 +1°C° 0 mm 1 m/s 634 mmHg 75%
    18:00 -2°C° 0 mm 2 m/s 633 mmHg 79%
    19:00 -2°C° 0 mm 2 m/s 633 mmHg 78%
    20:00 -3°C° 0 mm 2 m/s 634 mmHg 77%
    21:00 -3°C° 0 mm 2 m/s 634 mmHg 75%
    22:00 -3°C° 0 mm 2 m/s 633 mmHg 75%
    23:00 -3°C° 0 mm 2 m/s 633 mmHg 74%
    Mostrar mais